Погода в Фуэнтеррабиа

Испания     43˚22′11″N   1˚47′37″W
темп.,
°C
ветер,
м/с
пор.,
м/с
влажн.,
%
обл.,
%
осадки,
мм/ч
давл.,
гПа
погр.,
м
17 января, вс
вс1701:00+6˚ю336735 0.0 103055
04:00+7˚ююз226992 0.0 102853
07:00+8˚юз227896 0.0 102856
10:00+8˚юз2383100 0.1 102885
13:00+7˚з1495100 1.6 1029208
16:00+8˚сз2499100 1.3 1028234
19:00+7˚с1299100 1.8 1029128
22:00+6˚сз019799 0.1 103068
18 января, пн
пн1801:00+4˚ююз119778 0.1 103132
04:00+4˚ююз119624 0.0 102928
07:00+4˚ю119527 0.0 102927
10:00+6˚ююз119287 0.0 102965
13:00+11˚сз117878 0.0 1028481
16:00+10˚с118159 0.0 1026372
19:00+6˚ююв119445 0.0 102726
22:00+6˚ю23900 0.0 102642
19 января, вт
вт1901:00+5˚ю33900 0.0 102671
04:00+4˚ю45860 0.0 1024126
07:00+4˚ююв56850 0.0 1023156
10:00+6˚ю58780 0.0 1022237
13:00+10˚ю58630 0.0 1020389
16:00+11˚ююв48630 0.0 1016447
19:00+7˚ю577221 0.0 1016208
22:00+7˚ю596798 0.0 1014364
20 января, ср
ср2001:00+7˚ю6116754 0.0 1013515
04:00+6˚ю5106872 0.0 1011487
07:00+7˚ю5136585 0.0 1009761
10:00+7˚ююв61269100 0.1 1007818
13:00+9˚ю51369100 0.1 10041080
16:00+9˚ю61770100 0.0 10021328
19:00+9˚ю51674100 0.0 10021052
22:00+8˚ю61478100 0.1 1003781
21 января, чт
чт2101:00+8˚ю5177998 0.4 1005787
04:00+9˚ююз5157799 0.0 1006784
07:00+8˚ю3108099 0.1 1008476
10:00+9˚ю41478100 0.0 1009997
13:00+13˚ююз6146397 0.0 10071464
16:00+13˚ю3156698 0.1 10031629
19:00+10˚ююз6207899 1.1 10021559
22:00+9˚ю4168499 0.2 1002729